Regional Weather Roundup
Issued by NWS

Home | Current Version | Previous Version | Graphics & Text | Print | Product List | Glossary On
Versions: 1 2 3 4 5 6 7 8 9 10 11 12 13 14 15 16 17 18 19 20 21 22 23 24 25 26 27 28 29 30 31 32 33 34 35 36 37 38 39 40 41 42 43 44 45 46 47 48 49 50
000
ASUS43 KBIS 200310
RWRND

NORTH DAKOTA REGIONAL WEATHER ROUNDUP
NATIONAL WEATHER SERVICE BISMARCK ND
900 PM CST FRI DEC 19 2014

NOTE: "FAIR" INDICATES FEW OR NO CLOUDS BELOW 12,000 FEET WITH NO
SIGNIFICANT WEATHER AND/OR OBSTRUCTIONS TO VISIBILITY.


NDZ001>003-009>011-017-200400-
NORTHWEST NORTH DAKOTA

CITY           SKY/WX    TMP DP  RH WIND       PRES   REMARKS
WILLISTON      FOG       20  18  92 NE3       29.91F VSB 1/2
MINOT          CLOUDY    26  24  92 S3        29.93S FOG
MINOT AFB      CLOUDY    25  25 100 VRB1      29.94S FOG
$$

NDZ018>021-031>035-040>046-200400-
SOUTHWEST NORTH DAKOTA

CITY           SKY/WX    TMP DP  RH WIND       PRES   REMARKS
BISMARCK       CLEAR     21  20  96 NE6       29.95S WCI  13
DICKINSON      CLEAR     22  18  85 S6        29.88S WCI  14
GARRISON         N/A     28  26  92 W3        29.92S
HETTINGER ARPT CLEAR     22  18  85 CALM      29.91F
$$

NDZ004>008-012>016-024-026-027-054-200400-
NORTHEAST NORTH DAKOTA

CITY           SKY/WX    TMP DP  RH WIND       PRES   REMARKS
GRAND FORKS    CLOUDY    29  28  96 S6        30.00S FOG
GRND FRKS AFB  CLOUDY    29  29 100 S5        29.99F
DEVILS LAKE    CLOUDY    27  19  74 SW3       29.94S
$$

NDZ022-023-025-028>030-036>039-047>053-200400-
SOUTHEAST NORTH DAKOTA

CITY           SKY/WX    TMP DP  RH WIND       PRES   REMARKS
FARGO          CLOUDY    32  28  85 S12       30.01F
JAMESTOWN      FOG       25  24  96 S7        29.95S VSB 1/4 WCI  17
$$



USA.gov is the U.S. government's official web portal to all federal, state and local government web resources and services.